Change the Weather History Date:

Saturday, May 25, 2013

  Actual Average Record
Temperature  
Mean Temperature 68 °F -  
Max Temperature 80 °F 87 °F 101 °F (1953)
Min Temperature 55 °F 60 °F 48 °F (1931)
Cooling Degree Days 2    
Growing Degree Days 18 (Base 50)    
Moisture  
Dew Point 43 °F    
Average Humidity 46    
Maximum Humidity 100    
Minimum Humidity 20    
Precipitation  
Precipitation 0.00 in - - ()
Sea Level Pressure  
Sea Level Pressure 30.25 in    
Wind  
Wind Speed 4 mph (NNE)    
Max Wind Speed 10 mph    
Max Gust Speed -    
Visibility 10 miles    
Events      
Averages and records for this station are not official NWS values.
T = Trace of Precipitation, MM = Missing Value Source: NWS Daily Summary

Daily Weather History Graph

Daily Weather History Graph

Search for Another Location

Airport or City:

Trip Planner

Search our weather history database for the weather conditions in past years. The results will help you decide how hot, cold, wet, or windy it might be!

Date:

Astronomy

May. 25, 2013 Rise Set
Actual Time 6:27 AM EDT 8:30 PM EDT
Civil Twilight 6:00 AM EDT 8:58 PM EDT
Nautical Twilight 5:26 AM EDT 9:31 PM EDT
Astronomical Twilight 4:50 AM EDT 10:08 PM EDT
Moon 9:17 PM EDT (5/25) 6:52 AM EDT (5/25)
Length of Visible Light 14h 58m
Length of Day
14h 02m
Full, 100% of the Moon is Illuminated
May 25
Full
May 31
Last Quarter
Jun 8
New
Jun 16
First Quarter
Jun 23
Full

Hourly Weather History & Observations

Time (EDT) Temp. Dew Point Humidity Pressure Visibility Wind Dir Wind Speed Gust Speed Precip Events Conditions
12:15 AM 66.2 °F 44.6 °F 46% 30.20 in 10.0 mi NNW 4.6 mph - N/A   Clear
12:35 AM 64.4 °F 44.6 °F 49% 30.20 in 10.0 mi North 3.5 mph - N/A   Clear
12:55 AM 62.6 °F 48.2 °F 59% 30.22 in 10.0 mi East 8.1 mph - N/A   Clear
1:15 AM 62.6 °F 50.0 °F 63% 30.21 in 10.0 mi NNW 3.5 mph - N/A   Clear
1:35 AM 62.6 °F 50.0 °F 63% 30.21 in 10.0 mi Calm Calm - N/A   Clear
1:55 AM 60.8 °F 50.0 °F 68% 30.21 in 10.0 mi NNE 3.5 mph - N/A   Clear
2:15 AM 62.6 °F 48.2 °F 59% 30.20 in 10.0 mi NNE 3.5 mph - N/A   Clear
2:35 AM 62.6 °F 46.4 °F 55% 30.20 in 10.0 mi NNE 3.5 mph - N/A   Clear
2:55 AM 60.8 °F 48.2 °F 63% 30.20 in 10.0 mi Calm Calm - N/A   Clear
3:15 AM 60.8 °F 46.4 °F 59% 30.20 in 10.0 mi NNE 3.5 mph - N/A   Clear
3:35 AM 60.8 °F 46.4 °F 59% 30.21 in 10.0 mi NNE 4.6 mph - N/A   Clear
3:55 AM 60.8 °F 46.4 °F 59% 30.21 in 10.0 mi NNE 4.6 mph - N/A   Clear
4:15 AM 59.0 °F 44.6 °F 59% 30.21 in 10.0 mi Calm Calm - N/A   Clear
4:35 AM 59.0 °F 46.4 °F 63% 30.22 in 10.0 mi Calm Calm - N/A   Clear
4:55 AM 59.0 °F 44.6 °F 59% 30.23 in 10.0 mi Calm Calm - N/A   Clear
5:15 AM 57.2 °F 44.6 °F 63% 30.24 in 10.0 mi NE 3.5 mph - N/A   Clear
5:35 AM 55.4 °F 44.6 °F 67% 30.24 in 10.0 mi NE 4.6 mph - N/A   Clear
5:55 AM 55.4 °F 44.6 °F 67% 30.24 in 10.0 mi NE 4.6 mph - N/A   Clear
6:15 AM 55.4 °F 42.8 °F 63% 30.26 in 10.0 mi NNE 5.8 mph - N/A   Clear
6:35 AM 55.4 °F 42.8 °F 63% 30.27 in 10.0 mi NE 6.9 mph - N/A   Clear
6:55 AM 55.4 °F 44.6 °F 67% 30.27 in 10.0 mi NE 3.5 mph - N/A   Clear
7:15 AM 55.4 °F 42.8 °F 63% 30.27 in 10.0 mi NNE 3.5 mph - N/A   Clear
7:35 AM 57.2 °F 44.6 °F 63% 30.28 in 10.0 mi ENE 5.8 mph - N/A   Clear
7:55 AM 59.0 °F 42.8 °F 55% 30.29 in 10.0 mi NE 6.9 mph - N/A   Clear
8:15 AM 60.8 °F 42.8 °F 52% 30.31 in 10.0 mi ENE 9.2 mph - N/A   Clear
8:35 AM 62.6 °F 41.0 °F 45% 30.31 in 10.0 mi East 10.4 mph - N/A   Clear
8:55 AM 62.6 °F 41.0 °F 45% 30.33 in 10.0 mi East 6.9 mph - N/A   Clear
9:15 AM 64.4 °F 39.2 °F 40% 30.33 in 10.0 mi East 8.1 mph - N/A   Clear
9:35 AM 66.2 °F 37.4 °F 35% 30.34 in 10.0 mi East 9.2 mph - N/A   Clear
9:55 AM 68.0 °F 37.4 °F 33% 30.35 in 10.0 mi East 6.9 mph - N/A   Clear
10:15 AM 69.8 °F 39.2 °F 33% 30.35 in 10.0 mi East 8.1 mph - N/A   Clear
10:35 AM 69.8 °F 37.4 °F 31% 30.35 in 10.0 mi East 8.1 mph - N/A   Clear
10:55 AM 69.8 °F 37.4 °F 31% 30.34 in 10.0 mi SE 3.5 mph - N/A   Clear
11:15 AM 71.6 °F 37.4 °F 29% 30.34 in 10.0 mi SSE 4.6 mph - N/A   Clear
11:35 AM 71.6 °F 35.6 °F 27% 30.34 in 10.0 mi Calm Calm - N/A   Clear
11:55 AM 73.4 °F 37.4 °F 27% 30.33 in 10.0 mi NE 5.8 mph - N/A   Clear
12:15 PM 73.4 °F 35.6 °F 25% 30.32 in 10.0 mi East 4.6 mph - N/A   Clear
12:35 PM 73.4 °F 37.4 °F 27% 30.32 in 10.0 mi NE 5.8 mph - N/A   Clear
12:55 PM 75.2 °F 37.4 °F 25% 30.31 in 10.0 mi Calm Calm - N/A   Clear
1:15 PM 77.0 °F 35.6 °F 22% 30.30 in 10.0 mi Calm Calm - N/A   Clear
1:35 PM 77.0 °F 35.6 °F 22% 30.29 in 10.0 mi ESE 3.5 mph - N/A   Clear
1:55 PM 77.0 °F 35.6 °F 22% 30.28 in 10.0 mi NE 3.5 mph - N/A   Clear
2:15 PM 77.0 °F 33.8 °F 21% 30.28 in 10.0 mi NNW 3.5 mph - N/A   Clear
2:35 PM 77.0 °F 35.6 °F 22% 30.27 in 10.0 mi Calm Calm - N/A   Clear
2:55 PM 78.8 °F 37.4 °F 23% 30.27 in 10.0 mi West 3.5 mph - N/A   Clear
3:15 PM 78.8 °F 35.6 °F 21% 30.26 in 10.0 mi North 4.6 mph - N/A   Clear
3:35 PM 78.8 °F 35.6 °F 21% 30.25 in 10.0 mi WNW 4.6 mph - N/A   Clear
3:55 PM 78.8 °F 37.4 °F 23% 30.24 in 10.0 mi North 3.5 mph - N/A   Clear
4:15 PM 77.0 °F 39.2 °F 26% 30.23 in 10.0 mi SSW 3.5 mph - N/A   Clear
4:35 PM 78.8 °F 41.0 °F 26% 30.23 in 10.0 mi Calm Calm - N/A   Clear
4:55 PM 80.6 °F 37.4 °F 21% 30.23 in 10.0 mi North 3.5 mph - N/A   Clear
5:15 PM 78.8 °F 37.4 °F 23% 30.23 in 10.0 mi WNW 6.9 mph - N/A   Clear
5:35 PM 80.6 °F 37.4 °F 21% 30.22 in 10.0 mi NNW 3.5 mph - N/A   Clear
5:55 PM 78.8 °F 37.4 °F 23% 30.22 in 10.0 mi NW 5.8 mph - N/A   Clear
6:15 PM 80.6 °F 35.6 °F 20% 30.22 in 10.0 mi NW 5.8 mph - N/A   Clear
6:35 PM 78.8 °F 37.4 °F 23% 30.22 in 10.0 mi North 4.6 mph - N/A   Clear
6:55 PM 78.8 °F 37.4 °F 23% 30.22 in 10.0 mi NW 4.6 mph - N/A   Clear
7:15 PM 78.8 °F 39.2 °F 24% 30.22 in 10.0 mi NNW 3.5 mph - N/A   Clear
7:35 PM 78.8 °F 41.0 °F 26% 30.22 in 10.0 mi NNW 3.5 mph - N/A   Clear
7:55 PM 77.0 °F 42.8 °F 29% 30.22 in 10.0 mi Calm Calm - N/A   Clear
8:15 PM 75.2 °F 44.6 °F 34% 30.22 in 10.0 mi Calm Calm - N/A   Clear
8:35 PM 69.8 °F 53.6 °F 56% 30.22 in 10.0 mi Calm Calm - N/A   Clear
8:55 PM 68.0 °F 55.4 °F 64% 30.22 in 10.0 mi Calm Calm - N/A   Clear
9:15 PM 66.2 °F 55.4 °F 68% 30.22 in 10.0 mi Calm Calm - N/A   Clear
9:35 PM 64.4 °F 53.6 °F 68% 30.22 in 10.0 mi Calm Calm - N/A   Clear
9:55 PM 62.6 °F 55.4 °F 77% 30.22 in 10.0 mi Calm Calm - N/A   Clear
10:15 PM 62.6 °F 55.4 °F 77% 30.23 in 10.0 mi Calm Calm - N/A   Clear
11:15 PM 59.0 °F 59.0 °F 100% 30.23 in 10.0 mi Calm Calm - N/A   Clear
11:35 PM 59.0 °F 59.0 °F 100% 30.23 in 10.0 mi Calm Calm - N/A   Clear
11:55 PM 59.0 °F 59.0 °F 100% 30.23 in 10.0 mi Calm Calm - N/A   Clear